User: anonymous   Login
Location: Dampvalley
(47.9094°N, 6.1967°E)
Time: 00:43:22
(UTC+00:00)
Language:

Cosmos 2333 Rocket - Orbit

View from above orbital plane
View from above orbital plane
View from above satellite
View from above satellite

Ground track
Ground track

The orbit data is extracted from the following two-line orbital elements,

1 24298U 96051B   21138.76780373 -.00000184  00000-0 -73250-4 0  9998
2 24298  70.8293 283.5545 0017872 220.4091 139.5702 14.12446152273965
Epoch (UTC): 18 May 2021 18:25:38
Eccentricity: 0.0017872
inclination: 70.8293°
perigee height: 838 km
apogee height: 864 km
right ascension of ascending node: 283.5545°
argument of perigee: 220.4091°
revolutions per day: 14.12446152
mean anomaly at epoch: 139.5702°
orbit number at epoch: 27396

The dashed part of the orbit path shows where the satellite is in the earth's shadow,  

DLR